Year,Month,Day,Hour,Minute,Value (Times are PST for barometer in hPa)
2016,03,09,00,00,1009.36
2016,03,09,00,01,1009.35
2016,03,09,00,02,1009.35
2016,03,09,00,03,1009.35
2016,03,09,00,04,1009.35
2016,03,09,00,05,1009.35
2016,03,09,00,06,1009.35
2016,03,09,00,07,1009.35
2016,03,09,00,08,1009.35
2016,03,09,00,09,1009.35
2016,03,09,00,10,1009.35
2016,03,09,00,11,1009.35
2016,03,09,00,12,1009.35
2016,03,09,00,13,1009.35
2016,03,09,00,14,1009.35
2016,03,09,00,15,1009.69
2016,03,09,00,16,1009.69
2016,03,09,00,17,1009.69
2016,03,09,00,18,1009.69
2016,03,09,00,19,1009.69
2016,03,09,00,20,1009.69
2016,03,09,00,21,1009.69
2016,03,09,00,22,1009.69
2016,03,09,00,23,1009.69
2016,03,09,00,24,1009.69
2016,03,09,00,25,1009.69
2016,03,09,00,26,1009.69
2016,03,09,00,27,1009.69
2016,03,09,00,28,1009.69
2016,03,09,00,29,1009.69
2016,03,09,00,30,1009.82
2016,03,09,00,31,1009.82
2016,03,09,00,32,1009.82
2016,03,09,00,33,1009.82
2016,03,09,00,34,1009.82
2016,03,09,00,35,1009.82
2016,03,09,00,36,1009.82
2016,03,09,00,37,1009.82
2016,03,09,00,38,1009.82
2016,03,09,00,39,1009.82
2016,03,09,00,40,1009.82
2016,03,09,00,41,1009.82
2016,03,09,00,42,1009.82
2016,03,09,00,43,1009.82
2016,03,09,00,44,1009.82
2016,03,09,00,45,1009.99
2016,03,09,00,46,1009.99
2016,03,09,00,47,1009.99
2016,03,09,00,48,1009.99
2016,03,09,00,49,1009.99
2016,03,09,00,50,1009.99
2016,03,09,00,51,1009.99
2016,03,09,00,52,1009.99
2016,03,09,00,53,1009.99
2016,03,09,00,54,1009.99
2016,03,09,00,55,1009.99
2016,03,09,00,56,1009.99
2016,03,09,00,57,1009.99
2016,03,09,00,58,1009.99
2016,03,09,00,59,1009.99
2016,03,09,01,00,1009.89
2016,03,09,01,01,1009.89
2016,03,09,01,02,1009.89
2016,03,09,01,03,1009.89
2016,03,09,01,04,1009.89
2016,03,09,01,05,1009.89
2016,03,09,01,06,1009.89
2016,03,09,01,07,1009.89
2016,03,09,01,08,1009.89
2016,03,09,01,09,1009.89
2016,03,09,01,10,1009.89
2016,03,09,01,11,1009.89
2016,03,09,01,12,1009.89
2016,03,09,01,13,1009.89
2016,03,09,01,14,1009.89
2016,03,09,01,15,1010.01
2016,03,09,01,16,1010.02
2016,03,09,01,17,1010.02
2016,03,09,01,18,1010.02
2016,03,09,01,19,1010.02
2016,03,09,01,20,1010.02
2016,03,09,01,21,1010.02
2016,03,09,01,22,1010.02
2016,03,09,01,23,1010.02
2016,03,09,01,24,1010.02
2016,03,09,01,25,1010.02
2016,03,09,01,26,1010.02
2016,03,09,01,27,1010.02
2016,03,09,01,28,1010.02
2016,03,09,01,29,1010.02
2016,03,09,01,30,1010.13
2016,03,09,01,31,1010.13
2016,03,09,01,32,1010.13
2016,03,09,01,33,1010.13
2016,03,09,01,34,1010.13
2016,03,09,01,35,1010.13
2016,03,09,01,36,1010.13
2016,03,09,01,37,1010.13
2016,03,09,01,38,1010.13
2016,03,09,01,39,1010.13
2016,03,09,01,40,1010.13
2016,03,09,01,41,1010.13
2016,03,09,01,42,1010.13
2016,03,09,01,43,1010.13
2016,03,09,01,44,1010.13
2016,03,09,01,45,1010.06
2016,03,09,01,46,1010.06
2016,03,09,01,47,1010.06
2016,03,09,01,48,1010.06
2016,03,09,01,49,1010.06
2016,03,09,01,50,1010.06
2016,03,09,01,51,1010.06
2016,03,09,01,52,1010.06
2016,03,09,01,53,1010.06
2016,03,09,01,54,1010.06
2016,03,09,01,55,1010.06
2016,03,09,01,56,1010.06
2016,03,09,01,57,1010.06
2016,03,09,01,58,1010.06
2016,03,09,01,59,1010.06
2016,03,09,02,00,1009.38
2016,03,09,02,01,1009.38
2016,03,09,02,02,1009.38
2016,03,09,02,03,1009.38
2016,03,09,02,04,1009.38
2016,03,09,02,05,1009.38
2016,03,09,02,06,1009.38
2016,03,09,02,07,1009.38
2016,03,09,02,08,1009.38
2016,03,09,02,09,1009.38
2016,03,09,02,10,1009.38
2016,03,09,02,11,1009.38
2016,03,09,02,12,1009.38
2016,03,09,02,13,1009.38
2016,03,09,02,14,1009.38
2016,03,09,02,15,1009.65
2016,03,09,02,16,1009.65
2016,03,09,02,17,1009.65
2016,03,09,02,18,1009.65
2016,03,09,02,19,1009.65
2016,03,09,02,20,1009.65
2016,03,09,02,21,1009.65
2016,03,09,02,22,1009.65
2016,03,09,02,23,1009.65
2016,03,09,02,24,1009.65
2016,03,09,02,25,1009.65
2016,03,09,02,26,1009.65
2016,03,09,02,27,1009.65
2016,03,09,02,28,1009.65
2016,03,09,02,29,1009.65
2016,03,09,02,30,1009.69
2016,03,09,02,31,1009.69
2016,03,09,02,32,1009.69
2016,03,09,02,33,1009.69
2016,03,09,02,34,1009.69
2016,03,09,02,35,1009.69
2016,03,09,02,36,1009.69
2016,03,09,02,37,1009.69
2016,03,09,02,38,1009.69
2016,03,09,02,39,1009.69
2016,03,09,02,40,1009.69
2016,03,09,02,41,1009.69
2016,03,09,02,42,1009.69
2016,03,09,02,43,1009.69
2016,03,09,02,44,1009.69
2016,03,09,02,45,1009.82
2016,03,09,02,46,1009.82
2016,03,09,02,47,1009.82
2016,03,09,02,48,1009.82
2016,03,09,02,49,1009.82
2016,03,09,02,50,1009.82
2016,03,09,02,51,1009.82
2016,03,09,02,52,1009.82
2016,03,09,02,53,1009.82
2016,03,09,02,54,1009.82
2016,03,09,02,55,1009.82
2016,03,09,02,56,1009.82
2016,03,09,02,57,1009.82
2016,03,09,02,58,1009.82
2016,03,09,02,59,1009.82
2016,03,09,03,00,1010.23
2016,03,09,03,01,1010.23
2016,03,09,03,02,1010.23
2016,03,09,03,03,1010.23
2016,03,09,03,04,1010.23
2016,03,09,03,05,1010.23
2016,03,09,03,06,1010.23
2016,03,09,03,07,1010.23
2016,03,09,03,08,1010.23
2016,03,09,03,09,1010.23
2016,03,09,03,10,1010.23
2016,03,09,03,11,1010.23
2016,03,09,03,12,1010.23
2016,03,09,03,13,1010.23
2016,03,09,03,14,1010.23
2016,03,09,03,15,1010.33
2016,03,09,03,16,1010.33
2016,03,09,03,17,1010.33
2016,03,09,03,18,1010.33
2016,03,09,03,19,1010.33
2016,03,09,03,20,1010.33
2016,03,09,03,21,1010.33
2016,03,09,03,22,1010.33
2016,03,09,03,23,1010.33
2016,03,09,03,24,1010.33
2016,03,09,03,25,1010.33
2016,03,09,03,26,1010.33
2016,03,09,03,27,1010.33
2016,03,09,03,28,1010.33
2016,03,09,03,29,1010.33
2016,03,09,03,30,1010.33
2016,03,09,03,31,1010.33
2016,03,09,03,32,1010.33
2016,03,09,03,33,1010.33
2016,03,09,03,34,1010.33
2016,03,09,03,35,1010.33
2016,03,09,03,36,1010.33
2016,03,09,03,37,1010.33
2016,03,09,03,38,1010.33
2016,03,09,03,39,1010.33
2016,03,09,03,40,1010.33
2016,03,09,03,41,1010.33
2016,03,09,03,42,1010.33
2016,03,09,03,43,1010.33
2016,03,09,03,44,1010.33
2016,03,09,03,45,1010.23
2016,03,09,03,46,1010.23
2016,03,09,03,47,1010.23
2016,03,09,03,48,1010.23
2016,03,09,03,49,1010.23
2016,03,09,03,50,1010.23
2016,03,09,03,51,1010.23
2016,03,09,03,52,1010.23
2016,03,09,03,53,1010.23
2016,03,09,03,54,1010.23
2016,03,09,03,55,1010.23
2016,03,09,03,56,1010.23
2016,03,09,03,57,1010.23
2016,03,09,03,58,1010.23
2016,03,09,03,59,1010.23
2016,03,09,04,00,1009.89
2016,03,09,04,01,1009.89
2016,03,09,04,02,1009.89
2016,03,09,04,03,1009.89
2016,03,09,04,04,1009.89
2016,03,09,04,05,1009.89
2016,03,09,04,06,1009.89
2016,03,09,04,07,1009.89
2016,03,09,04,08,1009.89
2016,03,09,04,09,1009.89
2016,03,09,04,10,1009.89
2016,03,09,04,11,1009.89
2016,03,09,04,12,1009.89
2016,03,09,04,13,1009.89
2016,03,09,04,14,1009.89
2016,03,09,04,15,1009.86
2016,03,09,04,16,1009.86
2016,03,09,04,17,1009.86
2016,03,09,04,18,1009.86
2016,03,09,04,19,1009.86
2016,03,09,04,20,1009.86
2016,03,09,04,21,1009.86
2016,03,09,04,22,1009.86
2016,03,09,04,23,1009.86
2016,03,09,04,24,1009.86
2016,03,09,04,25,1009.86
2016,03,09,04,26,1009.86
2016,03,09,04,27,1009.86
2016,03,09,04,28,1009.86
2016,03,09,04,29,1009.86
2016,03,09,04,30,1009.86
2016,03,09,04,31,1009.86
2016,03,09,04,32,1009.86
2016,03,09,04,33,1009.86
2016,03,09,04,34,1009.86
2016,03,09,04,35,1009.86
2016,03,09,04,36,1009.86
2016,03,09,04,37,1009.86
2016,03,09,04,38,1009.86
2016,03,09,04,39,1009.86
2016,03,09,04,40,1009.86
2016,03,09,04,41,1009.86
2016,03,09,04,42,1009.86
2016,03,09,04,43,1009.86
2016,03,09,04,44,1009.86
2016,03,09,04,45,1009.92
2016,03,09,04,46,1009.92
2016,03,09,04,47,1009.92
2016,03,09,04,48,1009.92
2016,03,09,04,49,1009.92
2016,03,09,04,50,1009.92
2016,03,09,04,51,1009.92
2016,03,09,04,52,1009.92
2016,03,09,04,53,1009.92
2016,03,09,04,54,1009.92
2016,03,09,04,55,1009.92
2016,03,09,04,56,1009.92
2016,03,09,04,57,1009.92
2016,03,09,04,58,1009.92
2016,03,09,04,59,1009.92
2016,03,09,05,00,1010.21
2016,03,09,05,01,1010.23
2016,03,09,05,02,1010.23
2016,03,09,05,03,1010.23
2016,03,09,05,04,1010.23
2016,03,09,05,05,1010.23
2016,03,09,05,06,1010.23
2016,03,09,05,07,1010.23
2016,03,09,05,08,1010.23
2016,03,09,05,09,1010.23
2016,03,09,05,10,1010.23
2016,03,09,05,11,1010.23
2016,03,09,05,12,1010.23
2016,03,09,05,13,1010.23
2016,03,09,05,14,1010.23
2016,03,09,05,15,1010.16
2016,03,09,05,16,1010.16
2016,03,09,05,17,1010.16
2016,03,09,05,18,1010.16
2016,03,09,05,19,1010.16
2016,03,09,05,20,1010.16
2016,03,09,05,21,1010.16
2016,03,09,05,22,1010.16
2016,03,09,05,23,1010.16
2016,03,09,05,24,1010.16
2016,03,09,05,25,1010.16
2016,03,09,05,26,1010.16
2016,03,09,05,27,1010.16
2016,03,09,05,28,1010.16
2016,03,09,05,29,1010.16
2016,03,09,05,30,1010.19
2016,03,09,05,31,1010.19
2016,03,09,05,32,1010.19
2016,03,09,05,33,1010.19
2016,03,09,05,34,1010.19
2016,03,09,05,35,1010.19
2016,03,09,05,36,1010.19
2016,03,09,05,37,1010.19
2016,03,09,05,38,1010.19
2016,03,09,05,39,1010.19
2016,03,09,05,40,1010.19
2016,03,09,05,41,1010.19
2016,03,09,05,42,1010.19
2016,03,09,05,43,1010.19
2016,03,09,05,44,1010.19
2016,03,09,05,45,1010.26
2016,03,09,05,46,1010.26
2016,03,09,05,47,1010.26
2016,03,09,05,48,1010.26
2016,03,09,05,49,1010.26
2016,03,09,05,50,1010.26
2016,03,09,05,51,1010.26
2016,03,09,05,52,1010.26
2016,03,09,05,53,1010.26
2016,03,09,05,54,1010.26
2016,03,09,05,55,1010.26
2016,03,09,05,56,1010.26
2016,03,09,05,57,1010.26
2016,03,09,05,58,1010.26
2016,03,09,05,59,1010.26
2016,03,09,06,00,1010.16
2016,03,09,06,01,1010.16
2016,03,09,06,02,1010.16
2016,03,09,06,03,1010.16
2016,03,09,06,04,1010.16
2016,03,09,06,05,1010.16
2016,03,09,06,06,1010.16
2016,03,09,06,07,1010.16
2016,03,09,06,08,1010.16
2016,03,09,06,09,1010.16
2016,03,09,06,10,1010.16
2016,03,09,06,11,1010.16
2016,03,09,06,12,1010.16
2016,03,09,06,13,1010.16
2016,03,09,06,14,1010.16
2016,03,09,06,15,1009.96
2016,03,09,06,16,1009.96
2016,03,09,06,17,1009.96
2016,03,09,06,18,1009.96
2016,03,09,06,19,1009.96
2016,03,09,06,20,1009.96
2016,03,09,06,21,1009.96
2016,03,09,06,22,1009.96
2016,03,09,06,23,1009.96
2016,03,09,06,24,1009.96
2016,03,09,06,25,1009.96
2016,03,09,06,26,1009.96
2016,03,09,06,27,1009.96
2016,03,09,06,28,1009.96
2016,03,09,06,29,1009.96
2016,03,09,06,30,1009.92
2016,03,09,06,31,1009.92
2016,03,09,06,32,1009.92
2016,03,09,06,33,1009.92
2016,03,09,06,34,1009.92
2016,03,09,06,35,1009.92
2016,03,09,06,36,1009.92
2016,03,09,06,37,1009.92
2016,03,09,06,38,1009.92
2016,03,09,06,39,1009.92
2016,03,09,06,40,1009.92
2016,03,09,06,41,1009.92
2016,03,09,06,42,1009.92
2016,03,09,06,43,1009.92
2016,03,09,06,44,1009.92
2016,03,09,06,45,1009.86
2016,03,09,06,46,1009.86
2016,03,09,06,47,1009.86
2016,03,09,06,48,1009.86
2016,03,09,06,49,1009.86
2016,03,09,06,50,1009.86
2016,03,09,06,51,1009.86
2016,03,09,06,52,1009.86
2016,03,09,06,53,1009.86
2016,03,09,06,54,1009.86
2016,03,09,06,55,1009.86
2016,03,09,06,56,1009.86
2016,03,09,06,57,1009.86
2016,03,09,06,58,1009.86
2016,03,09,06,59,1009.86
2016,03,09,07,00,1009.72
2016,03,09,07,01,1009.72
2016,03,09,07,02,1009.72
2016,03,09,07,03,1009.72
2016,03,09,07,04,1009.72
2016,03,09,07,05,1009.72
2016,03,09,07,06,1009.72
2016,03,09,07,07,1009.72
2016,03,09,07,08,1009.72
2016,03,09,07,09,1009.72
2016,03,09,07,10,1009.72
2016,03,09,07,11,1009.72
2016,03,09,07,12,1009.72
2016,03,09,07,13,1009.72
2016,03,09,07,14,1009.72
2016,03,09,07,15,1009.35
2016,03,09,07,16,1009.35
2016,03,09,07,17,1009.35
2016,03,09,07,18,1009.35
2016,03,09,07,19,1009.35
2016,03,09,07,20,1009.35
2016,03,09,07,21,1009.35
2016,03,09,07,22,1009.35
2016,03,09,07,23,1009.35
2016,03,09,07,24,1009.35
2016,03,09,07,25,1009.35
2016,03,09,07,26,1009.35
2016,03,09,07,27,1009.35
2016,03,09,07,28,1009.35
2016,03,09,07,29,1009.35
2016,03,09,07,30,1008.90
2016,03,09,07,31,1008.87
2016,03,09,07,32,1008.87
2016,03,09,07,33,1008.87
2016,03,09,07,34,1008.87
2016,03,09,07,35,1008.87
2016,03,09,07,36,1008.87
2016,03,09,07,37,1008.87
2016,03,09,07,38,1008.87
2016,03,09,07,39,1008.87
2016,03,09,07,40,1008.87
2016,03,09,07,41,1008.87
2016,03,09,07,42,1008.87
2016,03,09,07,43,1008.87
2016,03,09,07,44,1008.87
2016,03,09,07,45,1008.87
2016,03,09,07,46,1008.87
2016,03,09,07,47,1008.87
2016,03,09,07,48,1008.87
2016,03,09,07,49,1008.87
2016,03,09,07,50,1008.87
2016,03,09,07,51,1008.87
2016,03,09,07,52,1008.87
2016,03,09,07,53,1008.87
2016,03,09,07,54,1008.87
2016,03,09,07,55,1008.87
2016,03,09,07,56,1008.87
2016,03,09,07,57,1008.87
2016,03,09,07,58,1008.87
2016,03,09,07,59,1008.87
2016,03,09,08,00,1008.78
2016,03,09,08,01,1008.77
2016,03,09,08,02,1008.77
2016,03,09,08,03,1008.77
2016,03,09,08,04,1008.77
2016,03,09,08,05,1008.77
2016,03,09,08,06,1008.77
2016,03,09,08,07,1008.77
2016,03,09,08,08,1008.77
2016,03,09,08,09,1008.77
2016,03,09,08,10,1008.77
2016,03,09,08,11,1008.77
2016,03,09,08,12,1008.77
2016,03,09,08,13,1008.77
2016,03,09,08,14,1008.77
2016,03,09,08,15,1008.57
2016,03,09,08,16,1008.57
2016,03,09,08,17,1008.57
2016,03,09,08,18,1008.57
2016,03,09,08,19,1008.57
2016,03,09,08,20,1008.57
2016,03,09,08,21,1008.57
2016,03,09,08,22,1008.57
2016,03,09,08,23,1008.57
2016,03,09,08,24,1008.57
2016,03,09,08,25,1008.57
2016,03,09,08,26,1008.57
2016,03,09,08,27,1008.57
2016,03,09,08,28,1008.57
2016,03,09,08,29,1008.57
2016,03,09,08,30,1008.40
2016,03,09,08,31,1008.40
2016,03,09,08,32,1008.40
2016,03,09,08,33,1008.40
2016,03,09,08,34,1008.40
2016,03,09,08,35,1008.40
2016,03,09,08,36,1008.40
2016,03,09,08,37,1008.40
2016,03,09,08,38,1008.40
2016,03,09,08,39,1008.40
2016,03,09,08,40,1008.40
2016,03,09,08,41,1008.40
2016,03,09,08,42,1008.40
2016,03,09,08,43,1008.40
2016,03,09,08,44,1008.40
2016,03,09,08,45,1008.30
2016,03,09,08,46,1008.30
2016,03,09,08,47,1008.30
2016,03,09,08,48,1008.30
2016,03,09,08,49,1008.30
2016,03,09,08,50,1008.30
2016,03,09,08,51,1008.30
2016,03,09,08,52,1008.30
2016,03,09,08,53,1008.30
2016,03,09,08,54,1008.30
2016,03,09,08,55,1008.30
2016,03,09,08,56,1008.30
2016,03,09,08,57,1008.30
2016,03,09,08,58,1008.30
2016,03,09,08,59,1008.30
2016,03,09,09,00,1008.23
2016,03,09,09,01,1008.23
2016,03,09,09,02,1008.23
2016,03,09,09,03,1008.23
2016,03,09,09,04,1008.23
2016,03,09,09,05,1008.23
2016,03,09,09,06,1008.23
2016,03,09,09,07,1008.23
2016,03,09,09,08,1008.23
2016,03,09,09,09,1008.23
2016,03,09,09,10,1008.23
2016,03,09,09,11,1008.23
2016,03,09,09,12,1008.23
2016,03,09,09,13,1008.23
2016,03,09,09,14,1008.23
2016,03,09,09,15,1008.26
2016,03,09,09,16,1008.26
2016,03,09,09,17,1008.26
2016,03,09,09,18,1008.26
2016,03,09,09,19,1008.26
2016,03,09,09,20,1008.26
2016,03,09,09,21,1008.26
2016,03,09,09,22,1008.26
2016,03,09,09,23,1008.26
2016,03,09,09,24,1008.26
2016,03,09,09,25,1008.26
2016,03,09,09,26,1008.26
2016,03,09,09,27,1008.26
2016,03,09,09,28,1008.26
2016,03,09,09,29,1008.26
2016,03,09,09,30,1007.99
2016,03,09,09,31,1007.99
2016,03,09,09,32,1007.99
2016,03,09,09,33,1007.99
2016,03,09,09,34,1007.99
2016,03,09,09,35,1007.99
2016,03,09,09,36,1007.99
2016,03,09,09,37,1007.99
2016,03,09,09,38,1007.99
2016,03,09,09,39,1007.99
2016,03,09,09,40,1007.99
2016,03,09,09,41,1007.99
2016,03,09,09,42,1007.99
2016,03,09,09,43,1007.99
2016,03,09,09,44,1007.99
2016,03,09,09,45,1007.61
2016,03,09,09,46,1007.59
2016,03,09,09,47,1007.59
2016,03,09,09,48,1007.59
2016,03,09,09,49,1007.59
2016,03,09,09,50,1007.59
2016,03,09,09,51,1007.59
2016,03,09,09,52,1007.59
2016,03,09,09,53,1007.59
2016,03,09,09,54,1007.59
2016,03,09,09,55,1007.59
2016,03,09,09,56,1007.59
2016,03,09,09,57,1007.59
2016,03,09,09,58,1007.59
2016,03,09,09,59,1007.59
2016,03,09,10,00,1007.21
2016,03,09,10,01,1007.21
2016,03,09,10,02,1007.21
2016,03,09,10,03,1007.21
2016,03,09,10,04,1007.21
2016,03,09,10,05,1007.21
2016,03,09,10,06,1007.21
2016,03,09,10,07,1007.21
2016,03,09,10,08,1007.21
2016,03,09,10,09,1007.21
2016,03,09,10,10,1007.21
2016,03,09,10,11,1007.21
2016,03,09,10,12,1007.21
2016,03,09,10,13,1007.21
2016,03,09,10,14,1007.21
2016,03,09,10,15,1007.08
2016,03,09,10,16,1007.08
2016,03,09,10,17,1007.08
2016,03,09,10,18,1007.08
2016,03,09,10,19,1007.08
2016,03,09,10,20,1007.08
2016,03,09,10,21,1007.08
2016,03,09,10,22,1007.08
2016,03,09,10,23,1007.08
2016,03,09,10,24,1007.08
2016,03,09,10,25,1007.08
2016,03,09,10,26,1007.08
2016,03,09,10,27,1007.08
2016,03,09,10,28,1007.08
2016,03,09,10,29,1007.08
2016,03,09,10,30,1006.76
2016,03,09,10,31,1006.74
2016,03,09,10,32,1006.74
2016,03,09,10,33,1006.74
2016,03,09,10,34,1006.74
2016,03,09,10,35,1006.74
2016,03,09,10,36,1006.74
2016,03,09,10,37,1006.74
2016,03,09,10,38,1006.74
2016,03,09,10,39,1006.74
2016,03,09,10,40,1006.74
2016,03,09,10,41,1006.74
2016,03,09,10,42,1006.74
2016,03,09,10,43,1006.74
2016,03,09,10,44,1006.74
2016,03,09,10,45,1006.26
2016,03,09,10,46,1006.23
2016,03,09,10,47,1006.23
2016,03,09,10,48,1006.23
2016,03,09,10,49,1006.23
2016,03,09,10,50,1006.23
2016,03,09,10,51,1006.23
2016,03,09,10,52,1006.23
2016,03,09,10,53,1006.23
2016,03,09,10,54,1006.23
2016,03,09,10,55,1006.23
2016,03,09,10,56,1006.23
2016,03,09,10,57,1006.23
2016,03,09,10,58,1006.23
2016,03,09,10,59,1006.23
2016,03,09,11,00,1005.86
2016,03,09,11,01,1005.86
2016,03,09,11,02,1005.86
2016,03,09,11,03,1005.86
2016,03,09,11,04,1005.86
2016,03,09,11,05,1005.86
2016,03,09,11,06,1005.86
2016,03,09,11,07,1005.86
2016,03,09,11,08,1005.86
2016,03,09,11,09,1005.86
2016,03,09,11,10,1005.86
2016,03,09,11,11,1005.86
2016,03,09,11,12,1005.86
2016,03,09,11,13,1005.86
2016,03,09,11,14,1005.86
2016,03,09,11,15,1005.22
2016,03,09,11,16,1005.18
2016,03,09,11,17,1005.18
2016,03,09,11,18,1005.18
2016,03,09,11,19,1005.18
2016,03,09,11,20,1005.18
2016,03,09,11,21,1005.18
2016,03,09,11,22,1005.18
2016,03,09,11,23,1005.18
2016,03,09,11,24,1005.18
2016,03,09,11,25,1005.18
2016,03,09,11,26,1005.18
2016,03,09,11,27,1005.18
2016,03,09,11,28,1005.18
2016,03,09,11,29,1005.18
2016,03,09,11,30,1005.02
2016,03,09,11,31,1005.01
2016,03,09,11,32,1005.01
2016,03,09,11,33,1005.01
2016,03,09,11,34,1005.01
2016,03,09,11,35,1005.01
2016,03,09,11,36,1005.01
2016,03,09,11,37,1005.01
2016,03,09,11,38,1005.01
2016,03,09,11,39,1005.01
2016,03,09,11,40,1005.01
2016,03,09,11,41,1005.01
2016,03,09,11,42,1005.01
2016,03,09,11,43,1005.01
2016,03,09,11,44,1005.01
2016,03,09,11,45,1004.61
2016,03,09,11,46,1004.61
2016,03,09,11,47,1004.61
2016,03,09,11,48,1004.61
2016,03,09,11,49,1004.61
2016,03,09,11,50,1004.61
2016,03,09,11,51,1004.61
2016,03,09,11,52,1004.61
2016,03,09,11,53,1004.61
2016,03,09,11,54,1004.61
2016,03,09,11,55,1004.61
2016,03,09,11,56,1004.61
2016,03,09,11,57,1004.61
2016,03,09,11,58,1004.61
2016,03,09,11,59,1004.61
2016,03,09,12,00,1004.13
2016,03,09,12,01,1004.10
2016,03,09,12,02,1004.10
2016,03,09,12,03,1004.10
2016,03,09,12,04,1004.10
2016,03,09,12,05,1004.10
2016,03,09,12,06,1004.10
2016,03,09,12,07,1004.10
2016,03,09,12,08,1004.10
2016,03,09,12,09,1004.10
2016,03,09,12,10,1004.10
2016,03,09,12,11,1004.10
2016,03,09,12,12,1004.10
2016,03,09,12,13,1004.10
2016,03,09,12,14,1004.10
2016,03,09,12,15,1003.71
2016,03,09,12,16,1003.69
2016,03,09,12,17,1003.69
2016,03,09,12,18,1003.69
2016,03,09,12,19,1003.69
2016,03,09,12,20,1003.69
2016,03,09,12,21,1003.69
2016,03,09,12,22,1003.69
2016,03,09,12,23,1003.69
2016,03,09,12,24,1003.69
2016,03,09,12,25,1003.69
2016,03,09,12,26,1003.69
2016,03,09,12,27,1003.69
2016,03,09,12,28,1003.69
2016,03,09,12,29,1003.69
2016,03,09,12,30,1003.24
2016,03,09,12,31,1003.22
2016,03,09,12,32,1003.22
2016,03,09,12,33,1003.22
2016,03,09,12,34,1003.22
2016,03,09,12,35,1003.22
2016,03,09,12,36,1003.22
2016,03,09,12,37,1003.22
2016,03,09,12,38,1003.22
2016,03,09,12,39,1003.22
2016,03,09,12,40,1003.22
2016,03,09,12,41,1003.22
2016,03,09,12,42,1003.22
2016,03,09,12,43,1003.22
2016,03,09,12,44,1003.22
2016,03,09,12,45,1003.02
2016,03,09,12,46,1003.01
2016,03,09,12,47,1003.01
2016,03,09,12,48,1003.01
2016,03,09,12,49,1003.01
2016,03,09,12,50,1003.01
2016,03,09,12,51,1003.01
2016,03,09,12,52,1003.01
2016,03,09,12,53,1003.01
2016,03,09,12,54,1003.01
2016,03,09,12,55,1003.01
2016,03,09,12,56,1003.01
2016,03,09,12,57,1003.01
2016,03,09,12,58,1003.01
2016,03,09,12,59,1003.01
2016,03,09,13,00,1002.59
2016,03,09,13,01,1002.57
2016,03,09,13,02,1002.57
2016,03,09,13,03,1002.57
2016,03,09,13,04,1002.57
2016,03,09,13,05,1002.57
2016,03,09,13,06,1002.57
2016,03,09,13,07,1002.57
2016,03,09,13,08,1002.57
2016,03,09,13,09,1002.57
2016,03,09,13,10,1002.57
2016,03,09,13,11,1002.57
2016,03,09,13,12,1002.57
2016,03,09,13,13,1002.57
2016,03,09,13,14,1002.57
2016,03,09,13,15,1002.20
2016,03,09,13,16,1002.20
2016,03,09,13,17,1002.20
2016,03,09,13,18,1002.20
2016,03,09,13,19,1002.20
2016,03,09,13,20,1002.20
2016,03,09,13,21,1002.20
2016,03,09,13,22,1002.20
2016,03,09,13,23,1002.20
2016,03,09,13,24,1002.20
2016,03,09,13,25,1002.20
2016,03,09,13,26,1002.20
2016,03,09,13,27,1002.20
2016,03,09,13,28,1002.20
2016,03,09,13,29,1002.20
2016,03,09,13,30,1002.33
2016,03,09,13,31,1002.34
2016,03,09,13,32,1002.34
2016,03,09,13,33,1002.34
2016,03,09,13,34,1002.34
2016,03,09,13,35,1002.34
2016,03,09,13,36,1002.34
2016,03,09,13,37,1002.34
2016,03,09,13,38,1002.34
2016,03,09,13,39,1002.34
2016,03,09,13,40,1002.34
2016,03,09,13,41,1002.34
2016,03,09,13,42,1002.34
2016,03,09,13,43,1002.34
2016,03,09,13,44,1002.34
2016,03,09,13,45,1002.14
2016,03,09,13,46,1002.13
2016,03,09,13,47,1002.13
2016,03,09,13,48,1002.13
2016,03,09,13,49,1002.13
2016,03,09,13,50,1002.13
2016,03,09,13,51,1002.13
2016,03,09,13,52,1002.13
2016,03,09,13,53,1002.13
2016,03,09,13,54,1002.13
2016,03,09,13,55,1002.13
2016,03,09,13,56,1002.13
2016,03,09,13,57,1002.13
2016,03,09,13,58,1002.13
2016,03,09,13,59,1002.13
2016,03,09,14,00,1001.55
2016,03,09,14,01,1001.52
2016,03,09,14,02,1001.52
2016,03,09,14,03,1001.52
2016,03,09,14,04,1001.52
2016,03,09,14,05,1001.52
2016,03,09,14,06,1001.52
2016,03,09,14,07,1001.52
2016,03,09,14,08,1001.52
2016,03,09,14,09,1001.52
2016,03,09,14,10,1001.52
2016,03,09,14,11,1001.52
2016,03,09,14,12,1001.52
2016,03,09,14,13,1001.52
2016,03,09,14,14,1001.52
2016,03,09,14,15,1001.01
2016,03,09,14,16,1000.98
2016,03,09,14,17,1000.98
2016,03,09,14,18,1000.98
2016,03,09,14,19,1000.98
2016,03,09,14,20,1000.98
2016,03,09,14,21,1000.98
2016,03,09,14,22,1000.98
2016,03,09,14,23,1000.98
2016,03,09,14,24,1000.98
2016,03,09,14,25,1000.98
2016,03,09,14,26,1000.98
2016,03,09,14,27,1000.98
2016,03,09,14,28,1000.98
2016,03,09,14,29,1000.98
2016,03,09,14,30,1000.86
2016,03,09,14,31,1000.85
2016,03,09,14,32,1000.85
2016,03,09,14,33,1000.85
2016,03,09,14,34,1000.85
2016,03,09,14,35,1000.85
2016,03,09,14,36,1000.85
2016,03,09,14,37,1000.85
2016,03,09,14,38,1000.85
2016,03,09,14,39,1000.85
2016,03,09,14,40,1000.85
2016,03,09,14,41,1000.85
2016,03,09,14,42,1000.85
2016,03,09,14,43,1000.85
2016,03,09,14,44,1000.85
2016,03,09,14,45,1000.50
2016,03,09,14,46,1000.48
2016,03,09,14,47,1000.48
2016,03,09,14,48,1000.48
2016,03,09,14,49,1000.48
2016,03,09,14,50,1000.48
2016,03,09,14,51,1000.48
2016,03,09,14,52,1000.48
2016,03,09,14,53,1000.48
2016,03,09,14,54,1000.48
2016,03,09,14,55,1000.48
2016,03,09,14,56,1000.48
2016,03,09,14,57,1000.48
2016,03,09,14,58,1000.48
2016,03,09,14,59,1000.48
2016,03,09,15,00,1000.03
2016,03,09,15,01,1000.00
2016,03,09,15,02,1000.00
2016,03,09,15,03,1000.00
2016,03,09,15,04,1000.00
2016,03,09,15,05,1000.00
2016,03,09,15,06,1000.00
2016,03,09,15,07,1000.00
2016,03,09,15,08,1000.00
2016,03,09,15,09,1000.00
2016,03,09,15,10,1000.00
2016,03,09,15,11,1000.00
2016,03,09,15,12,1000.00
2016,03,09,15,13,1000.00
2016,03,09,15,14,1000.00
2016,03,09,15,15,999.77
2016,03,09,15,16,999.76
2016,03,09,15,17,999.76
2016,03,09,15,18,999.76
2016,03,09,15,19,999.76
2016,03,09,15,20,999.76
2016,03,09,15,21,999.76
2016,03,09,15,22,999.76
2016,03,09,15,23,999.76
2016,03,09,15,24,999.76
2016,03,09,15,25,999.76
2016,03,09,15,26,999.76
2016,03,09,15,27,999.76
2016,03,09,15,28,999.76
2016,03,09,15,29,999.76
2016,03,09,15,30,999.39
2016,03,09,15,31,999.39
2016,03,09,15,32,999.39
2016,03,09,15,33,999.39
2016,03,09,15,34,999.39
2016,03,09,15,35,999.39
2016,03,09,15,36,999.39
2016,03,09,15,37,999.39
2016,03,09,15,38,999.39
2016,03,09,15,39,999.39
2016,03,09,15,40,999.39
2016,03,09,15,41,999.39
2016,03,09,15,42,999.39
2016,03,09,15,43,999.39
2016,03,09,15,44,999.39
2016,03,09,15,45,998.97
2016,03,09,15,46,998.95
2016,03,09,15,47,998.95
2016,03,09,15,48,998.95
2016,03,09,15,49,998.95
2016,03,09,15,50,998.95
2016,03,09,15,51,998.95
2016,03,09,15,52,998.95
2016,03,09,15,53,998.95
2016,03,09,15,54,998.95
2016,03,09,15,55,998.95
2016,03,09,15,56,998.95
2016,03,09,15,57,998.95